This demonstration page uses our WeatherBlox Daily Observations layout. Learn more.

Left ArrowRight Arrow

Hourly Observations for March 15, 2019

Temp ( °F °C ) Dew Point ( °F °C ) Humidity (%) Winds ( mph kmh ) Pressure ( in mb ) Visibility ( mi km ) Precip ( " mm )
12:57 am 00:57 Clear 31 -0.6 23 -5 72 72 NW 17 28 30.26 1025 10 16 0.00 0.00
1:57 am 01:57 Clear 31 -0.6 23 -5 72 72 NW 17 28 30.27 1025 10 16 0.00 0.00
2:57 am 02:57 Clear 30 -1.1 22 -5.6 72 72 NW 17 28 30.29 1026 10 16 0.00 0.00
3:57 am 03:57 Clear 29 -1.7 22 -5.6 75 75 NW 14 22 30.30 1026 10 16 0.00 0.00
4:57 am 04:57 Clear 27 -2.8 21 -6.1 78 78 NW 15 24 30.31 1027 10 16 0.00 0.00
5:57 am 05:57 Clear 27 -2.8 21 -6.1 78 78 NW 13 20 30.33 1027 10 16 0.00 0.00
6:57 am 06:57 Clear 26 -3.3 20 -6.7 78 78 WNW 12 19 30.37 1028 10 16 0.00 0.00
7:57 am 07:57 Sunny 26 -3.3 20 -6.7 78 78 WNW 12 19 30.39 1029 10 16 0.00 0.00
8:57 am 08:57 Sunny 27 -2.8 20 -6.7 75 75 WNW 14 22 30.40 1030 10 16 0.00 0.00
9:57 am 09:57 Sunny 31 -0.6 21 -6.1 67 67 WNW 10 17 30.42 1030 10 16 0.00 0.00
10:57 am 10:57 Sunny 35 1.7 20 -6.7 54 54 WNW 10 17 30.42 1030 10 16 0.00 0.00
11:57 am 11:57 Sunny 36 2.2 22 -5.6 57 57 W 13 20 30.42 1030 10 16 0.00 0.00
12:57 pm 12:57 Sunny 39 3.9 23 -5 53 53 WNW 13 20 30.42 1030 10 16 0.00 0.00
1:57 pm 13:57 Sunny 40 4.4 21 -6.1 47 47 WNW 13 20 30.41 1030 10 16 0.00 0.00
2:57 pm 14:57 Sunny 42 5.6 25 -3.9 51 51 WNW 9 15 30.40 1029 10 16 0.00 0.00
3:57 pm 15:57 Sunny 43 6.1 22 -5.6 43 43 WNW 9 15 30.39 1029 10 16 0.00 0.00
4:57 pm 16:57 Sunny 43 6.1 20 -6.7 40 40 WNW 9 15 30.38 1029 10 16 0.00 0.00
5:57 pm 17:57 Sunny 43 6.1 19 -7.2 38 38 NW 5 7 30.37 1029 10 16 0.00 0.00
6:57 pm 18:57 Sunny 43 6.1 24 -4.4 47 47 WNW 5 7 30.36 1028 10 16 0.00 0.00
7:57 pm 19:57 Clear 41 5 19 -7.2 41 41 W 3 6 30.36 1028 10 16 0.00 0.00
8:57 pm 20:57 Clear 36 2.2 25 -3.9 64 64 SE 5 7 30.37 1028 10 16 0.00 0.00
9:57 pm 21:57 Clear 33 0.6 25 -3.9 72 72 S 6 9 30.38 1029 10 16 0.00 0.00
10:57 pm 22:57 Clear 33 0.6 26 -3.3 75 75 SSW 7 11 30.38 1029 10 16 0.00 0.00
11:57 pm 23:57 Clear 32 0 27 -2.8 82 82 SW 6 9 30.38 1029 10 16 0.00 0.00

Powered by AerisWeather